Regional Weather Roundup
Issued by NWS Spokane, WA

Home | Current Version | Previous Version | Text Only | Print | Product List | Glossary On
Versions: 1 2 3 4 5 6 7 8 9 10 11 12 13 14 15 16 17 18 19 20 21 22 23 24 25 26 27 28 29 30 31 32 33 34 35 36 37 38 39 40 41 42 43 44 45 46 47 48 49 50
862
NZUS01 KOTX 240100
RWROTX
EASTERN WASHINGTON/NORTHERN IDAHO ROUNDUP
NATIONAL WEATHER SERVICE, SPOKANE WA
600 PM PDT SAT JUL 23 2016

Note: "fair" indicated few or no clouds below 12,000 feet with no
significant weather and/or obstructions to visibility.

...NORTHEAST WASHINGTON AND NORTHERN IDAHO PANHANDLE...

CITY           SKY/WX    TMP DP  RH WIND       PRES   REMARKS
SPOKANE INTL   FAIR      78  38  23 NW6       30.11F
SPOKANE DOWNTO SUNNY     79  42  26 VRB3      30.10F
COEUR D ALENE  MOSUNNY   75  45  33 N3        30.09F
DEER PARK      MOSUNNY   75  41  29 S5        30.12F

...SOUTHEAST WASHINGTON AND SOUTHERN IDAHO PANHANDLE...

CITY           SKY/WX    TMP DP  RH WIND       PRES   REMARKS
WALLA WALLA    SUNNY     82  37  20 W7        30.07F
PULLMAN/MOSCOW SUNNY     76  45  33 W9        30.14F
LOWELL           N/A     75  49  39 VRB3      30.05F

...COLUMBIA BASIN...

CITY           SKY/WX    TMP DP  RH WIND       PRES   REMARKS
EPHRATA        SUNNY     80  44  27 CALM      30.06F
MOSES LAKE     SUNNY     82  42  24 VRB5      30.07F
TRI CITIES     SUNNY     86  46  24 NE6       30.04F
HERMISTON      SUNNY     85  39  19 W3        30.04F
PENDLETON      SUNNY     82  37  20 W9        30.07F

...EAST SLOPES CASCADES...

CITY           SKY/WX    TMP DP  RH WIND       PRES   REMARKS
THE DALLES     SUNNY     80  50  34 NW16      30.05F
YAKIMA         MOSUNNY   88  43  20 SE3       30.05F
ELLENSBURG     SUNNY     77  47  34 NW22G31   30.09S
WENATCHEE      SUNNY     82  45  27 SE6       30.05F
OMAK           SUNNY     83  40  21 SW6       30.05F

...SOUTHERN BRITISH COLUMBIA...

CITY           SKY/WX    TMP DP  RH WIND       PRES   REMARKS

...WESTERN MONTANA...

CITY           SKY/WX    TMP DP  RH WIND       PRES   REMARKS
MISSOULA       MOSUNNY   79  38  22 NW12      30.09S

...NEIGHBORING CITIES...

CITY           SKY/WX    TMP DP  RH WIND       PRES   REMARKS
SEATTLE        MOSUNNY   72  53  51 NW12      30.24F



USA.gov is the U.S. government's official web portal to all federal, state and local government web resources and services.